[[{"header":{"parameterUnit":"m.s-1","parameterCategory":1,"la1":30.2992,"la2":30.254,"lo1":-89.0895,"lo2":-89.0443,"dy":0.0025,"dx":0.0025,"nx":19,"ny":19,"refTime":"2026-05-13T21:00:00:Z","depth":0,"parameterNumber":2,"parameterNumberName":"U-component_of_WINDS"},"data":[0,0,0,-3.9863,-3.9864,-3.9944,-3.9944,-4.0047,-4.0048,0,0,0,0,0,0,0,0,0,0,0,-3.984,-3.9841,-3.9863,-3.9865,-3.9944,-3.9944,-4.0047,-4.0048,0,0,0,0,0,0,0,0,0,0,0,-3.984,-3.9841,-3.9842,-3.9865,-3.9944,-3.9944,-4.0047,-3.9986,0,0,0,0,0,0,0,0,0,0,-3.9909,-3.9889,-3.9841,-3.9842,-3.9865,-3.9944,-3.9945,-3.9983,-3.999,-4.0012,0,-4.0032,0,-4.0042,-4.0055,-4.0056,0,0,0,-3.9863,-3.9884,-3.9904,-3.9842,-3.9866,-3.9944,-3.9908,-3.9987,-3.9995,-4.0021,-4.0034,-4.0038,-4.0044,-4.0056,-4.0056,-4.0189,-4.0189,0,0,-3.9859,-3.9855,-3.9899,-3.9909,-3.9898,-3.9905,-3.991,-3.9992,-4.0005,-4.0034,-4.004,-4.0046,-4.0057,-4.0057,-4.0188,-4.0189,0,0,0,-3.9847,-3.9852,-3.987,-3.9905,-3.992,-3.9908,-3.9913,-4.0001,-4.0008,-4.0041,-4.0047,-4.0057,-4.0059,-4.0187,-4.0188,-4.0216,0,0,0,-3.9844,-3.9845,-3.9869,-3.9867,-3.9918,-3.9962,-3.9921,-4.0002,-4.0012,-4.0046,-4.0057,-4.006,-4.0187,-4.0188,-4.0214,-4.0228,0,0,0,-3.9835,-3.9844,-3.9856,-3.9866,-3.9901,-3.996,-3.9971,-4.0004,-4.0015,-4.0056,-4.006,-4.0186,-4.0188,-4.0212,-4.0225,-4.026,0,0,0,-3.9822,-3.9879,-3.9856,-3.9922,-3.99,-3.9978,-3.9971,-4.0029,-4.0068,-4.0058,-4.0187,-4.0188,-4.0211,-4.0223,-4.0258,-4.0287,-4.0299,0,0,-3.9892,-3.9887,-3.9927,-3.9909,-3.9989,-3.9966,-4.0052,-4.009,-4.0098,-4.0158,-4.0161,-4.0214,-4.0225,-4.026,-4.0378,-4.0387,0,0,0,-3.9947,-3.9975,-3.9997,-4.0034,-4.0067,-4.0095,-4.0122,-4.0137,-4.0188,-4.0128,-4.0239,-4.0245,-4.0266,-4.0279,-4.0288,-4.0305,-4.0195,-4.0195,-4.0195,-4.0035,-4.0044,-4.0109,-4.0127,-4.0164,-4.0192,-4.0222,-4.0246,-4.0243,-4.027,-4.0285,-4.0356,-4.0372,-4.0379,-4.0396,-4.0305,-4.0305,-4.0305,-4.0305,-4.0135,-4.0174,-4.0172,-4.0233,-4.0242,-4.0294,-4.0325,-4.0321,-4.037,-4.0344,-4.0363,-4.033,-4.0389,-4.0405,-4.0307,-4.0307,-4.0307,-4.0306,-4.0306,-4.019,-4.021,-4.0229,-4.0284,-4.0326,-4.0344,-4.0392,-4.0399,-4.0405,-4.0424,-4.0441,-4.044,-4.0438,-4.0433,-4.0433,-4.0433,-4.0434,-4.0434,-4.0434,-4.0238,-4.0259,-4.0298,-4.034,-4.0365,-4.0399,-4.0431,-4.0456,-4.0485,-4.0486,-4.0486,-4.0479,-4.0395,-4.0372,-4.0438,-4.0437,-4.0436,-4.0436,-4.0436,-4.0329,-4.031,-4.0371,-4.0396,-4.0446,-4.0486,-4.0497,-4.0547,-4.0569,-4.0592,-4.0584,-4.0522,-4.0517,-4.051,-4.0491,-4.0583,-4.0583,-4.0583,-4.0583,-4.0373,-4.0373,-4.0436,-4.0477,-4.0518,-4.0534,-4.0601,-4.0628,-4.0651,-4.0666,-4.0655,-4.0631,-4.0624,-4.0623,-4.0614,-4.0595,-4.0713,-4.0713,-4.0713,-4.0427,-4.0432,-4.0488,-4.0512,-4.0552,-4.0586,-4.065,-4.0696,-4.072,-4.0718,-4.0676,-4.0671,-4.0633,-4.062,-4.0612,-4.0598,-4.0564,0,0]},{"header":{"parameterUnit":"m.s-1","parameterCategory":1,"la1":30.2992,"la2":30.254,"lo1":-89.0895,"lo2":-89.0443,"dy":0.0025,"dx":0.0025,"nx":19,"ny":19,"refTime":"2026-05-13T21:00:00:Z","depth":0,"parameterNumber":3,"parameterNumberName":"V-component_of_WINDS"},"data":[0,0,0,4.1305,4.1306,4.1325,4.1325,4.1352,4.1352,0,0,0,0,0,0,0,0,0,0,0,4.13,4.13,4.1305,4.1306,4.1325,4.1325,4.1352,4.1352,0,0,0,0,0,0,0,0,0,0,0,4.13,4.13,4.13,4.1306,4.1325,4.1325,4.1352,4.1336,0,0,0,0,0,0,0,0,0,0,4.1317,4.1313,4.13,4.13,4.1306,4.1325,4.1325,4.1336,4.1337,4.1344,0,4.135,0,4.1352,4.1354,4.1354,0,0,0,4.1305,4.1312,4.1316,4.13,4.1306,4.1325,4.1316,4.1337,4.1339,4.1346,4.135,4.1351,4.1352,4.1354,4.1355,4.1395,4.1395,0,0,4.1304,4.1304,4.1315,4.1318,4.1315,4.1316,4.1317,4.1338,4.1342,4.135,4.1352,4.1352,4.1355,4.1355,4.1395,4.1395,0,0,0,4.1301,4.1303,4.1307,4.1317,4.132,4.1316,4.1318,4.1341,4.1342,4.1352,4.1353,4.1355,4.1355,4.1395,4.1395,4.1407,0,0,0,4.13,4.1302,4.1307,4.1307,4.132,4.1331,4.132,4.1341,4.1343,4.1353,4.1355,4.1355,4.1394,4.1395,4.1406,4.1413,0,0,0,4.1298,4.1301,4.1305,4.1307,4.1316,4.1331,4.1333,4.1341,4.1344,4.1354,4.1355,4.1394,4.1395,4.1406,4.1411,4.1424,0,0,0,4.1296,4.1314,4.1305,4.1325,4.1316,4.1338,4.1333,4.135,4.136,4.1355,4.1394,4.1395,4.1405,4.1411,4.1423,4.1435,4.144,0,0,4.1319,4.1317,4.1329,4.1321,4.1346,4.1335,4.1361,4.137,4.137,4.1387,4.1388,4.1407,4.1411,4.1424,4.1467,4.1471,0,0,0,4.1336,4.1345,4.1352,4.1362,4.137,4.1377,4.1382,4.1386,4.14,4.1379,4.1415,4.1417,4.1425,4.143,4.1434,4.144,4.1397,4.1397,4.1397,4.1368,4.1369,4.139,4.1393,4.1403,4.1409,4.1418,4.1423,4.142,4.1428,4.1433,4.1459,4.1466,4.1468,4.1475,4.1439,4.1439,4.1439,4.1439,4.1402,4.1415,4.1412,4.1431,4.1431,4.1447,4.1454,4.1451,4.1466,4.1455,4.1462,4.145,4.1473,4.1479,4.144,4.144,4.144,4.144,4.144,4.1423,4.1429,4.1434,4.1451,4.1464,4.1466,4.1481,4.1481,4.1481,4.1487,4.1493,4.1493,4.1493,4.149,4.149,4.149,4.149,4.1491,4.1491,4.1443,4.1448,4.1461,4.1473,4.148,4.149,4.1498,4.1505,4.1513,4.1512,4.1512,4.1508,4.1475,4.1467,4.1492,4.1492,4.1492,4.1491,4.1491,4.1477,4.1469,4.1489,4.1497,4.1512,4.1525,4.1525,4.1541,4.1547,4.1554,4.155,4.1525,4.1523,4.152,4.1513,4.1549,4.1549,4.1549,4.1549,4.1494,4.1494,4.1515,4.1528,4.1541,4.1544,4.1567,4.1573,4.1578,4.1582,4.1577,4.1568,4.1566,4.1565,4.1561,4.1555,4.16,4.16,4.16,4.1516,4.1517,4.1536,4.1543,4.1554,4.1564,4.1586,4.1601,4.1605,4.1602,4.1585,4.1583,4.1569,4.1564,4.156,4.1554,4.1543,0,0]}]]